Main page
METAR-TAF:

METAR-TAF

Airports :

Oil platform

A12-cpp, Netherlands

latitude: 55-23-57N, longitude: 3-48-37E, elevation: 33 m

Current weather observation

The report was made 12 minutes ago, at 04:25 UTC
Wind 8 kt from the West
Temperature 17°C
Humidity 88%
Pressure 1012 hPa
Visibility 10 km or more

METAR: EHAK 220425Z AUTO 26008KT 9999 FEW012/// BKN033/// BKN038/// 17/15 Q1012 W///H///

Time: 06:37 (04:37 UTC)


TAF: missing

Weather observations and forecasts of more than 4000 airports (METAR and TAF reports).

The available stations are represented by yellow and red dots on the map.

Hover mouse over dot to see the name of the station.

Then click to see weather observations and forecasts.

To change the map : click on the green buttons with a black cross to zoom in, on the green button with a dash to zoom out, or on the green arrows for adjacent maps.


METAR-TAF: